Погода в Хоронхое

Россия / Республика Бурятия     50°28′26″N   106°08′53″E
темп.,
°C
ветер,
м/с
пор.,
м/с
влажн.,
%
обл.,
%
осадки,
мм/ч
давл.,
гПа
погр.,
м
21 июня, пн
пн2123:00+19вюв224431 0.0 100312
02:00+16з005514 0.0 100411
05:00+14ссв117367 0.0 100511
08:00+20вюв13475 0.0 1005427
11:00+25ююв33341 0.0 10041085
14:00+29ююз34315 0.0 10021770
17:00+30ю33270 0.0 10002258
20:00+26юз224330 0.0 100132
22 июня, вт
вт2223:00+19ююз116163 0.0 100211
02:00+16зюз1177100 0.6 100411
05:00+16ссв2277100 0.1 100514
08:00+19ссв236376 0.1 1006440
11:00+24ссв444681 0.0 10051274
14:00+26ссв3440100 0.0 10041606
17:00+24ссз134997 0.3 1004938
20:00+16ссз4695100 9.0 1008270
23 июня, ср
ср2323:00+16ссз1295100 0.3 100857
02:00+14сз1194100 0.3 100720
05:00+14зсз119396 0.0 100711
08:00+18зюз117786 0.0 1008364
11:00+23зюз235783 0.0 10071193
14:00+26юз344698 0.0 10051789
17:00+26з2343100 0.0 10041813
20:00+24сз11565 0.0 100511
24 июня, чт
чт2423:00+19юв2269100 0.0 100615
02:00+17вюв11778 0.0 100611
05:00+16в1177100 0.0 100611
08:00+21ссв2261100 0.0 1006365
11:00+24ссв3352100 0.0 10051052
14:00+28св234237 0.0 10021763
17:00+29ссв23340 0.0 10002245
20:00+23ссз4856100 0.2 1001466
25 июня, пт
пт2523:00+16с3590100 3.0 1005156
02:00+14ссз2490100 5.5 1006364
05:00+14ссз238897 0.2 1006275
08:00+14св1289100 0.8 1006256
11:00+15ссз128597 0.3 1007299
14:00+19сз226886 0.3 1006585
17:00+22сз335834 0.0 1004743
20:00+20св117189 0.0 100414